Time,TemperatureF,DewpointF,PressureIn,WindDirection,WindDirectionDegrees,WindSpeedMPH,WindSpeedGustMPH,Humidity,HourlyPrecipIn,Conditions,Clouds,dailyrainin,SolarRadiationWatts/m^2,SoftwareType,DateUTC
2013-04-27 00:05:00,51.8,48.4,30.13,NE,43,6.0,6.0,88,0.00,,,0.00,0,Wunderground v.1.15,2013-04-27 05:05:00,
2013-04-27 00:11:00,51.7,48.3,30.13,NE,39,7.0,15.0,88,0.00,,,0.00,0,Wunderground v.1.15,2013-04-27 05:11:00,
2013-04-27 00:17:00,51.6,48.2,30.14,NE,39,7.0,15.0,88,0.00,,,0.00,0,Wunderground v.1.15,2013-04-27 05:17:00,
2013-04-27 00:23:00,51.5,48.1,30.14,NE,43,6.0,15.0,88,0.00,,,0.00,0,Wunderground v.1.15,2013-04-27 05:23:00,
2013-04-27 00:29:00,51.5,48.1,30.13,NE,36,5.0,15.0,88,0.00,,,0.00,0,Wunderground v.1.15,2013-04-27 05:29:00,
2013-04-27 00:35:00,51.5,48.1,30.14,NE,42,6.0,6.0,88,0.00,,,0.00,0,Wunderground v.1.15,2013-04-27 05:35:00,
2013-04-27 00:41:00,51.5,48.1,30.14,NE,43,6.0,15.0,88,0.00,,,0.00,0,Wunderground v.1.15,2013-04-27 05:41:00,
2013-04-27 00:47:00,51.5,48.1,30.14,NE,41,6.0,15.0,88,0.00,,,0.00,0,Wunderground v.1.15,2013-04-27 05:47:00,
2013-04-27 00:53:00,51.4,48.0,30.14,NE,41,6.0,15.0,88,0.00,,,0.00,0,Wunderground v.1.15,2013-04-27 05:53:00,
2013-04-27 01:00:00,51.4,48.0,30.14,NE,37,6.0,15.0,88,0.00,,,0.00,0,Wunderground v.1.15,2013-04-27 06:00:00,
2013-04-27 01:05:00,51.4,48.0,30.14,NE,44,6.0,6.0,88,0.00,,,0.00,0,Wunderground v.1.15,2013-04-27 06:05:00,
2013-04-27 01:11:00,51.3,47.9,30.14,NE,39,5.0,7.0,88,0.00,,,0.00,0,Wunderground v.1.15,2013-04-27 06:11:00,
2013-04-27 01:17:00,51.3,47.9,30.14,NE,37,5.0,5.0,88,0.00,,,0.00,0,Wunderground v.1.15,2013-04-27 06:17:00,
2013-04-27 01:23:00,51.2,47.8,30.14,NE,34,5.0,6.0,88,0.00,,,0.00,0,Wunderground v.1.15,2013-04-27 06:23:00,
2013-04-27 01:29:00,51.2,48.1,30.14,NNE,25,6.0,6.0,89,0.00,,,0.00,0,Wunderground v.1.15,2013-04-27 06:29:00,
2013-04-27 01:35:00,51.2,48.1,30.14,NNE,25,6.0,6.0,89,0.00,,,0.00,0,Wunderground v.1.15,2013-04-27 06:35:00,
2013-04-27 01:41:00,51.1,48.0,30.14,NNE,25,5.0,6.0,89,0.00,,,0.00,0,Wunderground v.1.15,2013-04-27 06:41:00,
2013-04-27 01:47:00,51.1,48.0,30.14,NNE,25,6.0,6.0,89,0.00,,,0.00,0,Wunderground v.1.15,2013-04-27 06:47:00,
2013-04-27 01:53:00,51.0,47.9,30.13,NNE,25,5.0,6.0,89,0.00,,,0.00,0,Wunderground v.1.15,2013-04-27 06:53:00,
2013-04-27 01:59:00,51.0,47.9,30.13,NNE,19,5.0,9.0,89,0.00,,,0.00,0,Wunderground v.1.15,2013-04-27 06:59:00,
2013-04-27 02:05:00,51.0,47.9,30.13,NNE,19,6.0,6.0,89,0.00,,,0.00,0,Wunderground v.1.15,2013-04-27 07:05:00,
2013-04-27 02:11:00,50.9,47.8,30.12,NNE,19,6.0,9.0,89,0.00,,,0.00,0,Wunderground v.1.15,2013-04-27 07:11:00,
2013-04-27 02:17:00,50.9,47.8,30.12,NNE,19,6.0,9.0,89,0.00,,,0.00,0,Wunderground v.1.15,2013-04-27 07:17:00,
2013-04-27 02:23:00,50.9,47.8,30.12,NNE,12,8.0,11.0,89,0.00,,,0.00,0,Wunderground v.1.15,2013-04-27 07:23:00,
2013-04-27 02:29:00,50.7,47.6,30.12,NNE,24,9.0,9.0,89,0.00,,,0.00,0,Wunderground v.1.15,2013-04-27 07:29:00,
2013-04-27 02:35:00,50.6,47.5,30.12,NNE,24,7.0,7.0,89,0.00,,,0.00,0,Wunderground v.1.15,2013-04-27 07:35:00,
2013-04-27 02:41:00,50.5,47.4,30.12,NNE,12,7.0,9.0,89,0.00,,,0.00,0,Wunderground v.1.15,2013-04-27 07:41:00,
2013-04-27 02:47:00,50.5,47.4,30.11,NNE,17,8.0,11.0,89,0.00,,,0.00,0,Wunderground v.1.15,2013-04-27 07:47:00,
2013-04-27 02:53:00,50.4,47.3,30.11,NNE,16,8.0,11.0,89,0.00,,,0.00,0,Wunderground v.1.15,2013-04-27 07:53:00,
2013-04-27 02:59:00,50.3,47.2,30.11,NNE,16,8.0,9.0,89,0.00,,,0.00,0,Wunderground v.1.15,2013-04-27 07:59:00,
2013-04-27 03:05:00,50.3,47.2,30.11,NNE,12,8.0,8.0,89,0.00,,,0.00,0,Wunderground v.1.15,2013-04-27 08:05:00,
2013-04-27 03:11:00,50.3,47.2,30.10,North,8,8.0,9.0,89,0.00,,,0.00,0,Wunderground v.1.15,2013-04-27 08:11:00,
2013-04-27 03:17:00,50.3,47.2,30.10,North,9,9.0,10.0,89,0.00,,,0.00,0,Wunderground v.1.15,2013-04-27 08:17:00,
2013-04-27 03:23:00,50.3,47.2,30.10,North,6,9.0,10.0,89,0.00,,,0.00,0,Wunderground v.1.15,2013-04-27 08:23:00,
2013-04-27 03:29:00,50.2,47.1,30.10,North,6,10.0,11.0,89,0.00,,,0.00,0,Wunderground v.1.15,2013-04-27 08:29:00,
2013-04-27 03:35:00,50.2,47.1,30.10,North,2,10.0,11.0,89,0.00,,,0.00,0,Wunderground v.1.15,2013-04-27 08:35:00,
2013-04-27 03:41:00,50.2,47.1,30.10,North,2,9.0,11.0,89,0.00,,,0.00,0,Wunderground v.1.15,2013-04-27 08:41:00,
2013-04-27 03:47:00,50.2,47.1,30.10,North,2,9.0,9.0,89,0.00,,,0.00,0,Wunderground v.1.15,2013-04-27 08:47:00,
2013-04-27 03:53:00,50.2,47.1,30.10,North,10,9.0,10.0,89,0.00,,,0.00,0,Wunderground v.1.15,2013-04-27 08:53:00,
2013-04-27 03:59:00,50.1,47.0,30.10,North,10,8.0,9.0,89,0.00,,,0.00,0,Wunderground v.1.15,2013-04-27 08:59:00,
2013-04-27 04:05:00,50.1,47.0,30.10,NNE,15,8.0,9.0,89,0.00,,,0.00,0,Wunderground v.1.15,2013-04-27 09:05:00,
2013-04-27 04:11:00,50.1,47.0,30.10,North,10,8.0,9.0,89,0.00,,,0.00,0,Wunderground v.1.15,2013-04-27 09:11:00,
2013-04-27 04:17:00,50.1,47.0,30.10,NNE,12,8.0,9.0,89,0.00,,,0.00,0,Wunderground v.1.15,2013-04-27 09:17:00,
2013-04-27 04:23:00,50.1,47.0,30.10,NNE,13,8.0,9.0,89,0.00,,,0.00,0,Wunderground v.1.15,2013-04-27 09:23:00,
2013-04-27 04:29:00,50.1,47.0,30.10,NNE,19,7.0,9.0,89,0.00,,,0.00,0,Wunderground v.1.15,2013-04-27 09:29:00,
2013-04-27 04:35:00,50.1,47.0,30.10,NNE,12,7.0,9.0,89,0.00,,,0.00,0,Wunderground v.1.15,2013-04-27 09:35:00,
2013-04-27 04:41:00,50.1,47.0,30.10,North,8,8.0,9.0,89,0.00,,,0.00,0,Wunderground v.1.15,2013-04-27 09:41:00,
2013-04-27 04:47:00,50.2,47.1,30.10,North,9,8.0,9.0,89,0.00,,,0.00,0,Wunderground v.1.15,2013-04-27 09:47:00,
2013-04-27 04:53:00,50.2,47.1,30.10,North,9,7.0,9.0,89,0.00,,,0.00,0,Wunderground v.1.15,2013-04-27 09:53:00,
2013-04-27 04:59:00,50.2,47.1,30.10,North,8,7.0,9.0,89,0.00,,,0.00,0,Wunderground v.1.15,2013-04-27 09:59:00,
2013-04-27 05:05:00,50.2,47.1,30.10,North,8,7.0,9.0,89,0.00,,,0.00,0,Wunderground v.1.15,2013-04-27 10:05:00,
2013-04-27 05:11:00,50.2,47.1,30.10,North,7,7.0,9.0,89,0.00,,,0.00,0,Wunderground v.1.15,2013-04-27 10:11:00,
2013-04-27 05:17:00,50.2,47.1,30.10,North,6,6.0,9.0,89,0.00,,,0.00,0,Wunderground v.1.15,2013-04-27 10:17:00,
2013-04-27 05:23:00,50.2,47.1,30.10,North,6,7.0,9.0,89,0.00,,,0.00,0,Wunderground v.1.15,2013-04-27 10:23:00,
2013-04-27 05:29:00,50.1,47.0,30.10,North,6,6.0,9.0,89,0.00,,,0.00,0,Wunderground v.1.15,2013-04-27 10:29:00,
2013-04-27 05:35:00,50.2,47.1,30.10,North,6,5.0,5.0,89,0.00,,,0.01,0,Wunderground v.1.15,2013-04-27 10:35:00,
2013-04-27 05:41:00,50.2,47.1,30.10,North,357,5.0,9.0,89,0.00,,,0.01,0,Wunderground v.1.15,2013-04-27 10:41:00,
2013-04-27 05:47:00,50.2,47.1,30.10,North,352,6.0,9.0,89,0.00,,,0.01,0,Wunderground v.1.15,2013-04-27 10:47:00,
2013-04-27 05:53:00,50.2,47.1,30.10,North,352,6.0,10.0,89,0.00,,,0.01,0,Wunderground v.1.15,2013-04-27 10:53:00,
2013-04-27 05:59:00,50.1,47.0,30.10,North,352,7.0,9.0,89,0.00,,,0.01,0,Wunderground v.1.15,2013-04-27 10:59:00,
2013-04-27 06:05:00,50.1,47.0,30.10,North,357,8.0,10.0,89,0.00,,,0.01,0,Wunderground v.1.15,2013-04-27 11:05:00,
2013-04-27 06:11:00,50.1,47.0,30.10,North,2,9.0,11.0,89,0.00,,,0.01,0,Wunderground v.1.15,2013-04-27 11:11:00,
2013-04-27 06:17:00,50.2,47.1,30.10,North,2,9.0,10.0,89,0.00,,,0.01,0,Wunderground v.1.15,2013-04-27 11:17:00,
2013-04-27 06:23:00,50.2,47.1,30.10,North,357,8.0,11.0,89,0.00,,,0.01,0,Wunderground v.1.15,2013-04-27 11:23:00,
2013-04-27 06:29:00,50.2,47.1,30.10,North,352,9.0,11.0,89,0.00,,,0.01,0,Wunderground v.1.15,2013-04-27 11:29:00,
2013-04-27 06:35:00,50.1,47.0,30.10,North,357,9.0,10.0,89,0.00,,,0.01,0,Wunderground v.1.15,2013-04-27 11:35:00,
2013-04-27 06:41:00,50.1,47.0,30.10,North,357,10.0,10.0,89,0.00,,,0.01,0,Wunderground v.1.15,2013-04-27 11:41:00,
2013-04-27 06:47:00,50.1,47.0,30.10,North,352,10.0,10.0,89,0.00,,,0.01,0,Wunderground v.1.15,2013-04-27 11:47:00,
2013-04-27 06:53:00,50.1,47.0,30.10,NNW,345,9.0,10.0,89,0.00,,,0.01,0,Wunderground v.1.15,2013-04-27 11:53:00,
2013-04-27 06:59:00,50.1,47.0,30.10,North,352,9.0,10.0,89,0.00,,,0.01,7,Wunderground v.1.15,2013-04-27 11:59:00,
2013-04-27 07:05:00,50.1,47.0,30.11,NNW,338,10.0,13.0,89,0.00,,,0.01,7,Wunderground v.1.15,2013-04-27 12:05:00,
2013-04-27 07:11:00,50.1,47.0,30.11,North,357,10.0,13.0,89,0.00,,,0.01,12,Wunderground v.1.15,2013-04-27 12:11:00,
2013-04-27 07:17:00,50.1,47.0,30.10,North,352,10.0,11.0,89,0.00,,,0.01,25,Wunderground v.1.15,2013-04-27 12:17:00,
2013-04-27 07:23:00,50.2,47.1,30.11,North,357,10.0,15.0,89,0.00,,,0.01,30,Wunderground v.1.15,2013-04-27 12:23:00,
2013-04-27 07:29:00,50.2,47.1,30.11,North,6,10.0,10.0,89,0.00,,,0.01,37,Wunderground v.1.15,2013-04-27 12:29:00,
2013-04-27 07:35:00,50.3,47.2,30.11,NNW,348,11.0,11.0,89,0.00,,,0.01,51,Wunderground v.1.15,2013-04-27 12:35:00,
2013-04-27 07:41:00,50.4,47.3,30.11,North,2,10.0,11.0,89,0.00,,,0.01,46,Wunderground v.1.15,2013-04-27 12:41:00,
2013-04-27 07:47:00,50.5,47.4,30.11,North,357,9.0,9.0,89,0.00,,,0.01,37,Wunderground v.1.15,2013-04-27 12:47:00,
2013-04-27 07:53:00,50.5,47.4,30.11,North,2,9.0,11.0,89,0.00,,,0.01,33,Wunderground v.1.15,2013-04-27 12:53:00,
2013-04-27 07:59:00,50.5,47.4,30.12,North,357,11.0,14.0,89,0.00,,,0.01,32,Wunderground v.1.15,2013-04-27 12:59:00,
2013-04-27 08:05:00,50.5,47.4,30.12,NNW,344,11.0,11.0,89,0.00,,,0.01,58,Wunderground v.1.15,2013-04-27 13:05:00,
2013-04-27 08:11:00,50.6,47.5,30.12,North,357,10.0,13.0,89,0.00,,,0.01,81,Wunderground v.1.15,2013-04-27 13:11:00,
2013-04-27 08:17:00,50.7,47.3,30.12,North,352,10.0,12.0,88,0.00,,,0.01,79,Wunderground v.1.15,2013-04-27 13:17:00,
2013-04-27 08:23:00,50.9,47.5,30.12,North,11,10.0,12.0,88,0.00,,,0.01,67,Wunderground v.1.15,2013-04-27 13:23:00,
2013-04-27 08:29:00,50.8,47.4,30.12,North,6,10.0,14.0,88,0.00,,,0.01,83,Wunderground v.1.15,2013-04-27 13:29:00,
2013-04-27 08:35:00,51.0,47.6,30.12,NNE,24,11.0,11.0,88,0.00,,,0.01,100,Wunderground v.1.15,2013-04-27 13:35:00,
2013-04-27 08:41:00,51.2,47.8,30.12,North,6,10.0,13.0,88,0.00,,,0.01,83,Wunderground v.1.15,2013-04-27 13:41:00,
2013-04-27 08:49:00,51.3,47.9,30.12,North,2,11.0,13.0,88,0.00,,,0.01,130,Wunderground v.1.15,2013-04-27 13:49:00,
2013-04-27 08:55:00,51.5,48.1,30.13,North,357,10.0,10.0,88,0.00,,,0.01,63,Wunderground v.1.15,2013-04-27 13:55:00,
2013-04-27 09:01:00,51.4,47.7,30.13,NNE,15,10.0,12.0,87,0.00,,,0.01,51,Wunderground v.1.15,2013-04-27 14:01:00,
2013-04-27 09:07:00,51.4,47.7,30.13,NNW,346,11.0,11.0,87,0.00,,,0.01,53,Wunderground v.1.15,2013-04-27 14:07:00,
2013-04-27 09:13:00,51.4,47.7,30.13,North,352,10.0,11.0,87,0.00,,,0.01,76,Wunderground v.1.15,2013-04-27 14:13:00,
2013-04-27 09:19:00,51.4,47.7,30.13,North,2,10.0,13.0,87,0.00,,,0.01,88,Wunderground v.1.15,2013-04-27 14:19:00,
2013-04-27 09:25:00,51.5,47.8,30.13,NNW,341,10.0,10.0,87,0.00,,,0.01,111,Wunderground v.1.15,2013-04-27 14:25:00,
2013-04-27 09:31:00,51.7,48.0,30.14,North,2,9.0,12.0,87,0.00,,,0.01,93,Wunderground v.1.15,2013-04-27 14:31:00,
2013-04-27 09:37:00,51.7,48.0,30.13,NNW,347,10.0,13.0,87,0.00,,,0.01,98,Wunderground v.1.15,2013-04-27 14:37:00,
2013-04-27 09:43:00,51.9,47.8,30.13,North,6,10.0,13.0,86,0.00,,,0.01,95,Wunderground v.1.15,2013-04-27 14:43:00,
2013-04-27 09:49:00,52.0,47.9,30.13,North,2,11.0,12.0,86,0.00,,,0.01,134,Wunderground v.1.15,2013-04-27 14:49:00,
2013-04-27 09:55:00,52.0,47.9,30.13,North,357,10.0,10.0,86,0.00,,,0.01,169,Wunderground v.1.15,2013-04-27 14:55:00,
2013-04-27 10:01:00,52.3,48.2,30.13,North,6,10.0,11.0,86,0.00,,,0.01,183,Wunderground v.1.15,2013-04-27 15:01:00,
2013-04-27 10:07:00,52.5,48.4,30.13,NNE,12,10.0,14.0,86,0.00,,,0.01,174,Wunderground v.1.15,2013-04-27 15:07:00,
2013-04-27 10:13:00,52.6,48.2,30.13,North,352,10.0,14.0,85,0.00,,,0.01,142,Wunderground v.1.15,2013-04-27 15:13:00,
2013-04-27 10:19:00,52.8,48.4,30.13,NNW,336,9.0,10.0,85,0.00,,,0.01,141,Wunderground v.1.15,2013-04-27 15:19:00,
2013-04-27 10:25:00,52.9,48.5,30.13,North,352,9.0,9.0,85,0.00,,,0.01,167,Wunderground v.1.15,2013-04-27 15:25:00,
2013-04-27 10:31:00,53.0,48.6,30.14,North,352,9.0,12.0,85,0.00,,,0.01,137,Wunderground v.1.15,2013-04-27 15:31:00,
2013-04-27 10:37:00,53.0,48.6,30.14,NNW,347,9.0,9.0,85,0.00,,,0.01,93,Wunderground v.1.15,2013-04-27 15:37:00,
2013-04-27 10:43:00,52.7,48.0,30.14,NW,326,9.0,11.0,84,0.00,,,0.01,142,Wunderground v.1.15,2013-04-27 15:43:00,
2013-04-27 10:49:00,52.8,48.1,30.14,NNW,341,9.0,9.0,84,0.00,,,0.01,179,Wunderground v.1.15,2013-04-27 15:49:00,
2013-04-27 10:55:00,53.0,48.3,30.14,NNW,333,9.0,11.0,84,0.00,,,0.01,188,Wunderground v.1.15,2013-04-27 15:55:00,
2013-04-27 11:01:00,53.1,48.4,30.14,NNW,338,10.0,13.0,84,0.00,,,0.01,185,Wunderground v.1.15,2013-04-27 16:01:00,
2013-04-27 11:07:00,53.1,48.4,30.14,NNW,343,10.0,10.0,84,0.00,,,0.01,121,Wunderground v.1.15,2013-04-27 16:07:00,
2013-04-27 11:13:00,53.2,48.5,30.14,NNW,341,9.0,10.0,84,0.00,,,0.01,111,Wunderground v.1.15,2013-04-27 16:13:00,
2013-04-27 11:19:00,53.4,49.0,30.15,NNW,342,8.0,10.0,85,0.00,,,0.01,104,Wunderground v.1.15,2013-04-27 16:19:00,
2013-04-27 11:25:00,53.4,48.7,30.15,NNW,343,7.0,9.0,84,0.00,,,0.01,107,Wunderground v.1.15,2013-04-27 16:25:00,
2013-04-27 11:31:00,53.5,49.1,30.15,NNW,348,8.0,11.0,85,0.00,,,0.01,105,Wunderground v.1.15,2013-04-27 16:31:00,
2013-04-27 11:37:00,53.4,48.7,30.15,North,352,10.0,10.0,84,0.00,,,0.01,102,Wunderground v.1.15,2013-04-27 16:37:00,
2013-04-27 11:43:00,53.4,48.7,30.15,North,2,9.0,10.0,84,0.00,,,0.01,118,Wunderground v.1.15,2013-04-27 16:43:00,
2013-04-27 11:49:00,53.4,49.0,30.15,North,357,9.0,9.0,85,0.00,,,0.01,88,Wunderground v.1.15,2013-04-27 16:49:00,
2013-04-27 11:55:00,53.4,48.7,30.15,NNW,348,9.0,9.0,84,0.00,,,0.01,83,Wunderground v.1.15,2013-04-27 16:55:00,
2013-04-27 12:01:00,53.5,49.1,30.15,NNW,343,8.0,9.0,85,0.00,,,0.01,83,Wunderground v.1.15,2013-04-27 17:01:00,
2013-04-27 12:07:00,53.4,49.0,30.15,NNW,342,7.0,9.0,85,0.00,,,0.01,88,Wunderground v.1.15,2013-04-27 17:07:00,
2013-04-27 12:13:00,53.6,49.2,30.15,North,357,6.0,10.0,85,0.00,,,0.01,86,Wunderground v.1.15,2013-04-27 17:13:00,
2013-04-27 12:19:00,53.7,49.3,30.14,North,2,8.0,10.0,85,0.00,,,0.01,86,Wunderground v.1.15,2013-04-27 17:19:00,
2013-04-27 12:25:00,53.8,49.4,30.14,North,8,9.0,9.0,85,0.00,,,0.01,97,Wunderground v.1.15,2013-04-27 17:25:00,
2013-04-27 12:31:00,53.8,49.4,30.14,North,352,9.0,10.0,85,0.00,,,0.01,132,Wunderground v.1.15,2013-04-27 17:31:00,
2013-04-27 12:37:00,54.2,49.8,30.14,NNW,337,9.0,10.0,85,0.00,,,0.01,158,Wunderground v.1.15,2013-04-27 17:37:00,
2013-04-27 12:43:00,54.3,49.6,30.14,North,352,8.0,10.0,84,0.00,,,0.01,139,Wunderground v.1.15,2013-04-27 17:43:00,
2013-04-27 12:49:00,54.4,49.3,30.14,NNW,345,8.0,11.0,83,0.00,,,0.01,144,Wunderground v.1.15,2013-04-27 17:49:00,
2013-04-27 12:55:00,54.6,49.5,30.14,NNW,348,8.0,8.0,83,0.00,,,0.01,144,Wunderground v.1.15,2013-04-27 17:55:00,
2013-04-27 13:01:00,54.9,49.8,30.13,North,352,7.0,9.0,83,0.00,,,0.01,130,Wunderground v.1.15,2013-04-27 18:01:00,
2013-04-27 13:07:00,54.9,49.8,30.13,NNW,343,7.0,9.0,83,0.00,,,0.01,193,Wunderground v.1.15,2013-04-27 18:07:00,
2013-04-27 13:13:00,55.0,49.9,30.14,NW,326,8.0,11.0,83,0.00,,,0.01,181,Wunderground v.1.15,2013-04-27 18:13:00,
2013-04-27 13:19:00,55.0,49.6,30.13,NW,321,8.0,10.0,82,0.00,,,0.01,167,Wunderground v.1.15,2013-04-27 18:19:00,
2013-04-27 13:25:00,55.0,49.9,30.13,NNW,332,8.0,12.0,83,0.00,,,0.01,213,Wunderground v.1.15,2013-04-27 18:25:00,
2013-04-27 13:31:00,55.2,50.1,30.13,NNW,345,9.0,12.0,83,0.00,,,0.01,230,Wunderground v.1.15,2013-04-27 18:31:00,
2013-04-27 13:39:00,55.4,50.6,30.11,NNW,342,5.0,5.0,84,0.00,,,0.01,,Wunderground v.1.15,2013-04-27 18:39:00,
2013-04-27 13:45:00,55.7,50.6,30.12,NNW,338,8.0,11.0,83,0.00,,,0.01,290,Wunderground v.1.15,2013-04-27 18:45:00,
2013-04-27 13:51:00,56.0,50.9,30.12,NNW,339,9.0,12.0,83,0.00,,,0.01,399,Wunderground v.1.15,2013-04-27 18:51:00,
2013-04-27 13:57:00,56.8,52.0,30.11,North,352,8.0,9.0,84,0.00,,,0.01,668,Wunderground v.1.15,2013-04-27 18:57:00,
2013-04-27 14:03:00,57.4,51.6,30.12,NNW,345,7.0,10.0,81,0.00,,,0.01,482,Wunderground v.1.15,2013-04-27 19:03:00,
2013-04-27 14:09:00,57.7,51.9,30.11,North,8,8.0,9.0,81,0.00,,,0.01,519,Wunderground v.1.15,2013-04-27 19:09:00,
2013-04-27 14:15:00,58.0,51.9,30.11,North,9,8.0,8.0,80,0.00,,,0.01,494,Wunderground v.1.15,2013-04-27 19:15:00,
2013-04-27 14:21:00,58.5,52.4,30.11,NNW,347,7.0,10.0,80,0.00,,,0.01,446,Wunderground v.1.15,2013-04-27 19:21:00,
2013-04-27 14:27:00,58.6,51.4,30.11,NNW,334,7.0,7.0,77,0.00,,,0.01,461,Wunderground v.1.15,2013-04-27 19:27:00,
2013-04-27 14:33:00,58.7,51.5,30.10,NNW,334,6.0,9.0,77,0.00,,,0.01,454,Wunderground v.1.15,2013-04-27 19:33:00,
2013-04-27 14:39:00,59.2,52.7,30.10,North,352,6.0,12.0,79,0.00,,,0.01,445,Wunderground v.1.15,2013-04-27 19:39:00,
2013-04-27 14:45:00,59.6,52.0,30.10,North,357,7.0,12.0,76,0.00,,,0.01,483,Wunderground v.1.15,2013-04-27 19:45:00,
2013-04-27 14:51:00,59.9,52.7,30.10,North,2,9.0,12.0,77,0.00,,,0.01,380,Wunderground v.1.15,2013-04-27 19:51:00,
2013-04-27 14:57:00,59.7,52.1,30.09,North,2,9.0,12.0,76,0.00,,,0.01,441,Wunderground v.1.15,2013-04-27 19:57:00,
2013-04-27 15:03:00,59.8,52.6,30.09,North,2,7.0,12.0,77,0.00,,,0.01,439,Wunderground v.1.15,2013-04-27 20:03:00,
2013-04-27 15:09:00,60.4,53.2,30.08,North,10,7.0,12.0,77,0.00,,,0.01,612,Wunderground v.1.15,2013-04-27 20:09:00,
2013-04-27 15:15:00,60.7,53.4,30.08,NE,35,7.0,12.0,77,0.00,,,0.01,1005,Wunderground v.1.15,2013-04-27 20:15:00,
2013-04-27 15:21:00,61.2,52.8,30.08,North,10,7.0,12.0,74,0.00,,,0.01,563,Wunderground v.1.15,2013-04-27 20:21:00,
2013-04-27 15:27:00,61.1,52.7,30.08,North,352,7.0,12.0,74,0.00,,,0.01,529,Wunderground v.1.15,2013-04-27 20:27:00,
2013-04-27 15:33:00,61.8,53.8,30.07,North,352,6.0,12.0,75,0.00,,,0.01,986,Wunderground v.1.15,2013-04-27 20:33:00,
2013-04-27 15:39:00,62.3,53.5,30.07,North,2,6.0,12.0,73,0.00,,,0.01,749,Wunderground v.1.15,2013-04-27 20:39:00,
2013-04-27 15:45:00,62.0,52.9,30.07,NNE,28,6.0,6.0,72,0.00,,,0.01,251,Wunderground v.1.15,2013-04-27 20:45:00,
2013-04-27 15:51:00,62.3,53.9,30.07,NE,43,5.0,12.0,74,0.00,,,0.01,791,Wunderground v.1.15,2013-04-27 20:51:00,
2013-04-27 15:57:00,63.2,53.6,30.07,NNE,24,3.0,12.0,71,0.00,,,0.01,951,Wunderground v.1.15,2013-04-27 20:57:00,
2013-04-27 16:03:00,63.3,52.2,30.07,NNE,29,4.0,12.0,67,0.00,,,0.01,396,Wunderground v.1.15,2013-04-27 21:03:00,
2013-04-27 16:09:00,63.1,53.9,30.06,NNE,30,5.0,12.0,72,0.00,,,0.01,350,Wunderground v.1.15,2013-04-27 21:09:00,
2013-04-27 16:15:00,63.4,52.7,30.06,NNE,26,5.0,5.0,68,0.00,,,0.01,782,Wunderground v.1.15,2013-04-27 21:15:00,
2013-04-27 16:21:00,64.0,53.2,30.06,North,9,5.0,12.0,68,0.00,,,0.01,751,Wunderground v.1.15,2013-04-27 21:21:00,
2013-04-27 16:27:00,64.1,53.3,30.06,North,9,4.0,12.0,68,0.00,,,0.01,729,Wunderground v.1.15,2013-04-27 21:27:00,
2013-04-27 16:33:00,64.2,53.0,30.05,North,357,3.0,12.0,67,0.00,,,0.01,701,Wunderground v.1.15,2013-04-27 21:33:00,
2013-04-27 16:39:00,64.3,52.3,30.05,North,352,4.0,12.0,65,0.00,,,0.01,696,Wunderground v.1.15,2013-04-27 21:39:00,
2013-04-27 16:45:00,64.4,52.0,30.04,North,352,3.0,12.0,64,0.00,,,0.01,689,Wunderground v.1.15,2013-04-27 21:45:00,
2013-04-27 16:51:00,64.8,52.8,30.05,North,6,4.0,12.0,65,0.00,,,0.01,679,Wunderground v.1.15,2013-04-27 21:51:00,
2013-04-27 16:57:00,64.9,52.4,30.05,North,352,5.0,7.0,64,0.00,,,0.01,629,Wunderground v.1.15,2013-04-27 21:57:00,
2013-04-27 17:03:00,64.7,52.7,30.04,North,352,4.0,12.0,65,0.00,,,0.01,601,Wunderground v.1.15,2013-04-27 22:03:00,
2013-04-27 17:09:00,64.9,53.3,30.04,North,352,2.0,12.0,66,0.00,,,0.01,587,Wunderground v.1.15,2013-04-27 22:09:00,
2013-04-27 17:15:00,64.9,51.6,30.04,North,352,3.0,3.0,62,0.00,,,0.01,568,Wunderground v.1.15,2013-04-27 22:15:00,
2013-04-27 17:21:00,65.2,52.3,30.04,NNW,347,5.0,12.0,63,0.00,,,0.01,554,Wunderground v.1.15,2013-04-27 22:21:00,
2013-04-27 17:27:00,65.2,53.1,30.03,NNW,347,5.0,12.0,65,0.00,,,0.01,536,Wunderground v.1.15,2013-04-27 22:27:00,
2013-04-27 17:33:00,65.1,51.8,30.03,NNW,347,3.0,12.0,62,0.00,,,0.01,512,Wunderground v.1.15,2013-04-27 22:33:00,
2013-04-27 17:39:00,65.2,52.3,30.03,NNW,347,2.0,12.0,63,0.00,,,0.01,497,Wunderground v.1.15,2013-04-27 22:39:00,
2013-04-27 17:45:00,65.2,51.4,30.03,NNW,347,1.0,12.0,61,0.00,,,0.01,480,Wunderground v.1.15,2013-04-27 22:45:00,
2013-04-27 17:51:00,65.6,52.2,30.03,NNW,347,2.0,12.0,62,0.00,,,0.01,464,Wunderground v.1.15,2013-04-27 22:51:00,
2013-04-27 17:57:00,65.3,51.5,30.03,NNW,347,2.0,12.0,61,0.00,,,0.01,434,Wunderground v.1.15,2013-04-27 22:57:00,
2013-04-27 18:03:00,65.2,52.7,30.03,North,2,2.0,12.0,64,0.00,,,0.01,422,Wunderground v.1.15,2013-04-27 23:03:00,
2013-04-27 18:09:00,65.1,52.2,30.03,North,2,1.0,12.0,63,0.00,,,0.01,397,Wunderground v.1.15,2013-04-27 23:09:00,
2013-04-27 18:15:00,65.3,51.9,30.02,North,2,0.0,12.0,62,0.00,,,0.01,373,Wunderground v.1.15,2013-04-27 23:15:00,
2013-04-27 18:21:00,65.2,51.4,30.02,North,2,1.0,12.0,61,0.00,,,0.01,352,Wunderground v.1.15,2013-04-27 23:21:00,
2013-04-27 18:27:00,65.3,51.1,30.02,North,2,1.0,12.0,60,0.00,,,0.01,325,Wunderground v.1.15,2013-04-27 23:27:00,
2013-04-27 18:33:00,65.5,50.8,30.02,North,2,0.0,12.0,59,0.00,,,0.01,304,Wunderground v.1.15,2013-04-27 23:33:00,
2013-04-27 18:39:00,65.6,51.8,30.02,North,2,0.0,12.0,61,0.00,,,0.01,283,Wunderground v.1.15,2013-04-27 23:39:00,
2013-04-27 18:45:00,65.4,51.6,30.02,North,2,0.0,12.0,61,0.00,,,0.01,262,Wunderground v.1.15,2013-04-27 23:45:00,
2013-04-27 18:51:00,65.2,51.0,30.02,North,2,1.0,12.0,60,0.00,,,0.01,237,Wunderground v.1.15,2013-04-27 23:51:00,
2013-04-27 18:57:00,65.1,51.8,30.02,North,2,0.0,12.0,62,0.00,,,0.01,216,Wunderground v.1.15,2013-04-27 23:57:00,
2013-04-27 19:03:00,64.7,52.7,30.02,North,2,1.0,12.0,65,0.00,,,0.01,193,Wunderground v.1.15,2013-04-28 00:03:00,
2013-04-27 19:09:00,64.3,53.1,30.02,North,2,2.0,12.0,67,0.00,,,0.01,162,Wunderground v.1.15,2013-04-28 00:09:00,
2013-04-27 19:15:00,64.1,52.5,30.02,North,2,3.0,12.0,66,0.00,,,0.01,146,Wunderground v.1.15,2013-04-28 00:15:00,
2013-04-27 19:21:00,63.7,53.3,30.02,North,2,2.0,12.0,69,0.00,,,0.01,118,Wunderground v.1.15,2013-04-28 00:21:00,
2013-04-27 19:27:00,63.1,52.8,30.02,North,2,2.0,12.0,69,0.00,,,0.01,109,Wunderground v.1.15,2013-04-28 00:27:00,
2013-04-27 19:33:00,62.8,52.9,30.02,North,2,3.0,12.0,70,0.00,,,0.01,51,Wunderground v.1.15,2013-04-28 00:33:00,
2013-04-27 19:39:00,62.3,52.4,30.02,North,2,3.0,12.0,70,0.00,,,0.01,35,Wunderground v.1.15,2013-04-28 00:39:00,
2013-04-27 19:45:00,61.6,52.5,30.01,North,2,2.0,12.0,72,0.00,,,0.01,32,Wunderground v.1.15,2013-04-28 00:45:00,
2013-04-27 19:51:00,60.6,52.6,30.02,North,2,2.0,12.0,75,0.00,,,0.01,23,Wunderground v.1.15,2013-04-28 00:51:00,
2013-04-27 19:57:00,60.1,52.5,30.01,North,2,2.0,12.0,76,0.00,,,0.01,19,Wunderground v.1.15,2013-04-28 00:57:00,
2013-04-27 20:03:00,60.3,52.7,30.01,NE,56,4.0,12.0,76,0.00,,,0.01,14,Wunderground v.1.15,2013-04-28 01:03:00,
2013-04-27 20:09:00,59.8,52.6,30.01,East,81,5.0,12.0,77,0.00,,,0.01,9,Wunderground v.1.15,2013-04-28 01:09:00,
2013-04-27 20:15:00,58.8,52.3,30.01,East,81,5.0,5.0,79,0.00,,,0.01,5,Wunderground v.1.15,2013-04-28 01:15:00,
2013-04-27 20:21:00,58.1,52.0,30.01,East,90,5.0,12.0,80,0.00,,,0.01,0,Wunderground v.1.15,2013-04-28 01:21:00,
2013-04-27 20:27:00,57.9,51.8,30.01,East,92,6.0,12.0,80,0.00,,,0.01,0,Wunderground v.1.15,2013-04-28 01:27:00,
2013-04-27 20:33:00,57.3,51.2,30.02,East,92,6.0,12.0,80,0.00,,,0.01,0,Wunderground v.1.15,2013-04-28 01:33:00,
2013-04-27 20:39:00,56.5,51.1,30.01,East,93,6.0,12.0,82,0.00,,,0.01,0,Wunderground v.1.15,2013-04-28 01:39:00,
2013-04-27 20:45:00,56.1,50.7,30.01,ESE,115,7.0,12.0,82,0.00,,,0.01,0,Wunderground v.1.15,2013-04-28 01:45:00,
2013-04-27 20:51:00,56.6,51.5,30.02,ESE,120,7.0,12.0,83,0.00,,,0.01,0,Wunderground v.1.15,2013-04-28 01:51:00,
2013-04-27 20:57:00,56.3,50.5,30.02,ESE,122,6.0,12.0,81,0.00,,,0.01,0,Wunderground v.1.15,2013-04-28 01:57:00,
2013-04-27 21:03:00,56.0,50.9,30.02,ESE,123,5.0,12.0,83,0.00,,,0.01,0,Wunderground v.1.15,2013-04-28 02:03:00,
2013-04-27 21:09:00,56.0,50.9,30.02,SE,124,6.0,12.0,83,0.00,,,0.01,0,Wunderground v.1.15,2013-04-28 02:09:00,
2013-04-27 21:15:00,55.7,50.6,30.02,SE,124,5.0,12.0,83,0.00,,,0.01,0,Wunderground v.1.15,2013-04-28 02:15:00,
2013-04-27 21:21:00,55.5,50.4,30.02,SE,125,5.0,12.0,83,0.00,,,0.01,0,Wunderground v.1.15,2013-04-28 02:21:00,
2013-04-27 21:27:00,55.3,50.2,30.02,SE,125,5.0,12.0,83,0.00,,,0.01,0,Wunderground v.1.15,2013-04-28 02:27:00,
2013-04-27 21:33:00,55.3,50.2,30.02,SE,128,6.0,12.0,83,0.00,,,0.01,0,Wunderground v.1.15,2013-04-28 02:33:00,
2013-04-27 21:39:00,55.2,50.1,30.02,SE,128,6.0,12.0,83,0.00,,,0.01,0,Wunderground v.1.15,2013-04-28 02:39:00,
2013-04-27 21:45:00,54.7,49.6,30.02,SE,128,4.0,12.0,83,0.00,,,0.01,0,Wunderground v.1.15,2013-04-28 02:45:00,
2013-04-27 21:51:00,54.3,49.6,30.02,SE,128,4.0,12.0,84,0.00,,,0.01,0,Wunderground v.1.15,2013-04-28 02:51:00,
2013-04-27 21:57:00,53.8,49.1,30.02,SE,128,4.0,12.0,84,0.00,,,0.01,0,Wunderground v.1.15,2013-04-28 02:57:00,
2013-04-27 22:03:00,53.6,49.2,30.02,SE,128,4.0,12.0,85,0.00,,,0.01,0,Wunderground v.1.15,2013-04-28 03:03:00,
2013-04-27 22:09:00,53.2,48.8,30.02,SE,128,4.0,12.0,85,0.00,,,0.01,0,Wunderground v.1.15,2013-04-28 03:09:00,
2013-04-27 22:15:00,53.4,49.3,30.02,SE,128,4.0,12.0,86,0.00,,,0.01,0,Wunderground v.1.15,2013-04-28 03:15:00,
2013-04-27 22:21:00,53.0,48.9,30.03,SE,128,4.0,12.0,86,0.00,,,0.01,0,Wunderground v.1.15,2013-04-28 03:21:00,
2013-04-27 22:27:00,52.8,48.7,30.03,SE,128,4.0,12.0,86,0.00,,,0.01,0,Wunderground v.1.15,2013-04-28 03:27:00,
2013-04-27 22:33:00,52.8,48.7,30.02,SE,128,4.0,12.0,86,0.00,,,0.01,0,Wunderground v.1.15,2013-04-28 03:33:00,
2013-04-27 22:39:00,52.4,48.3,30.03,SE,128,4.0,12.0,86,0.00,,,0.01,0,Wunderground v.1.15,2013-04-28 03:39:00,
2013-04-27 22:45:00,52.4,48.3,30.02,SE,128,4.0,12.0,86,0.00,,,0.01,0,Wunderground v.1.15,2013-04-28 03:45:00,
2013-04-27 22:51:00,52.0,47.9,30.02,SE,128,4.0,12.0,86,0.00,,,0.01,0,Wunderground v.1.15,2013-04-28 03:51:00,
2013-04-27 22:57:00,51.8,48.1,30.02,SE,128,4.0,12.0,87,0.00,,,0.01,0,Wunderground v.1.15,2013-04-28 03:57:00,
2013-04-27 23:01:00,51.9,48.2,30.03,SE,128,4.0,12.0,87,0.00,,,0.01,0,Wunderground v.1.15,2013-04-28 04:01:00,
2013-04-27 23:03:00,51.9,48.2,30.03,SE,128,4.0,12.0,87,0.00,,,0.01,0,Wunderground v.1.15,2013-04-28 04:03:00,
2013-04-27 23:07:00,51.8,48.1,30.03,SE,128,4.0,12.0,87,0.00,,,0.01,0,Wunderground v.1.15,2013-04-28 04:07:00,
2013-04-27 23:11:00,51.4,47.7,30.03,SE,128,4.0,12.0,87,0.00,,,0.01,0,Wunderground v.1.15,2013-04-28 04:11:00,
2013-04-27 23:17:00,51.5,47.8,30.02,SE,128,4.0,12.0,87,0.00,,,0.01,0,Wunderground v.1.15,2013-04-28 04:17:00,
2013-04-27 23:23:00,51.3,47.6,30.03,SE,128,4.0,12.0,87,0.00,,,0.01,0,Wunderground v.1.15,2013-04-28 04:23:00,
2013-04-27 23:27:00,51.2,47.5,30.02,SE,128,3.0,12.0,87,0.00,,,0.01,0,Wunderground v.1.15,2013-04-28 04:27:00,
2013-04-27 23:33:00,50.6,46.9,30.02,SE,128,3.0,12.0,87,0.00,,,0.01,0,Wunderground v.1.15,2013-04-28 04:33:00,
2013-04-27 23:39:00,50.4,46.7,30.02,SE,128,3.0,12.0,87,0.00,,,0.01,0,Wunderground v.1.15,2013-04-28 04:39:00,
2013-04-27 23:45:00,50.5,47.1,30.02,SE,128,3.0,12.0,88,0.00,,,0.01,0,Wunderground v.1.15,2013-04-28 04:45:00,
2013-04-27 23:51:00,50.5,47.1,30.02,SE,128,3.0,12.0,88,0.00,,,0.01,0,Wunderground v.1.15,2013-04-28 04:51:00,
2013-04-27 23:57:00,50.0,46.6,30.02,SE,128,3.0,12.0,88,0.00,,,0.01,0,Wunderground v.1.15,2013-04-28 04:57:00,